[[[{"header":{"parameterUnit":"kt","parameterCategory":2,"dx":1,"dy":1,"la1":30.253999710083008,"la2":30.299108505249023,"lo1":-89.0895004272461,"lo2":-89.04439544677734,"nx":28,"ny":28,"refTime":"2022-09-18T21:00:00:Z","depth":0,"parameterNumber":1,"parameterNumberName":"U-component_of_WINDS"},"data":[-4.4539,-4.4552,-4.4537,-4.4546,-4.4534,-4.4537,-4.4534,-4.4528,-4.452,-4.4523,-4.4522,-4.4509,-4.4495,-4.4492,-4.4491,-4.4485,-4.4487,-4.4503,-4.4494,-4.4433,-4.4423,-4.4415,-4.441,-4.4503,-4.4503,-4.4559,-4.456,-4.456,-4.4501,-4.4489,-4.4488,-4.4477,-4.4477,-4.4453,-4.4443,-4.4444,-4.4448,-4.4437,-4.4435,-4.4437,-4.4436,-4.4416,-4.4413,-4.442,-4.4409,-4.4421,-4.4421,-4.4419,-4.4353,-4.4349,-4.443,-4.443,-4.443,-4.443,-4.443,-4.443,-4.4426,-4.4434,-4.4418,-4.4417,-4.4407,-4.44,-4.4405,-4.4387,-4.4387,-4.438,-4.4362,-4.4366,-4.4352,-4.4341,-4.4333,-4.4336,-4.432,-4.4329,-4.4331,-4.4334,-4.434,-4.4265,-4.4335,-4.4335,-4.4334,-4.4334,-4.4334,0,-4.4367,-4.4353,-4.435,-4.4344,-4.4342,-4.4335,-4.4326,-4.4329,-4.4294,-4.4295,-4.4295,-4.4293,-4.4288,-4.4287,-4.428,-4.427,-4.4245,-4.424,-4.4246,-4.4255,-4.4266,-4.4263,-4.4158,-4.4238,-4.4237,-4.4236,-4.4236,-4.4235,-4.4291,-4.4301,-4.4276,-4.4276,-4.4267,-4.4268,-4.4265,-4.4233,-4.4232,-4.4217,-4.4225,-4.4223,-4.4219,-4.4222,-4.4201,-4.4198,-4.4186,-4.4218,-4.4185,-4.4195,-4.4188,-4.4188,-4.419,-4.4226,-4.4227,-4.4228,-4.4229,0,-4.4251,-4.4224,-4.4234,-4.4207,-4.4201,-4.4213,-4.419,-4.4197,-4.4178,-4.4184,-4.4183,-4.4154,-4.4155,-4.4127,-4.4122,-4.4108,-4.4132,-4.4119,-4.4137,-4.4133,-4.4161,-4.416,-4.4252,-4.4263,-4.4165,-4.4166,-4.4167,0,-4.4177,-4.419,-4.4149,-4.4156,-4.4171,-4.4138,-4.4154,-4.4139,-4.4124,-4.4129,-4.4094,-4.4099,-4.4063,-4.4065,-4.4044,-4.4058,-4.4056,-4.4047,-4.4041,-4.4051,-4.4052,-4.405,-4.4046,-4.4026,-4.4026,-4.4025,-4.4025,0,-4.4117,-4.4109,-4.412,-4.4114,-4.4086,-4.4092,-4.4081,-4.4064,-4.4061,-4.4053,-4.4051,-4.4045,-4.4041,-4.4037,-4.401,-4.3989,-4.4026,-4.3991,-4.4017,-4.4017,-4.4026,-4.4026,-4.4114,-4.4024,-4.4024,-4.4024,-4.4024,0,-4.4052,-4.4043,-4.4062,-4.4038,-4.4037,-4.4044,-4.4035,-4.4034,-4.4019,-4.4005,-4.3999,-4.3972,-4.398,-4.3948,-4.3959,-4.3939,-4.3938,-4.3929,-4.3931,-4.393,-4.3895,-4.395,-4.4035,-4.4044,-4.393,-4.3929,-4.3929,0,-4.3992,-4.4003,-4.3973,-4.3992,-4.3993,-4.3954,-4.3961,-4.3948,-4.393,-4.3929,-4.391,-4.3909,-4.3879,-4.3875,-4.3884,-4.3864,-4.389,-4.386,-4.3862,-4.3862,-4.3868,-4.3947,-4.3967,-4.402,-4.3918,-4.3919,-4.392,0,-4.3941,-4.3904,-4.3909,-4.3901,-4.3876,-4.3876,-4.3884,-4.3875,-4.3876,-4.3864,-4.387,-4.3867,-4.3845,-4.3838,-4.3815,-4.3826,-4.3872,-4.38,-4.3799,-4.3815,-4.3909,-4.3929,-4.3938,-4.3854,-4.3855,-4.3856,-4.3912,0,-4.3852,-4.3853,-4.3865,-4.3846,-4.3841,-4.385,-4.3818,-4.3818,-4.3796,-4.3776,-4.3785,-4.3765,-4.3755,-4.3757,-4.3735,-4.3768,-4.3758,-4.3734,-4.37,-4.3751,-4.3769,-4.3776,-4.3677,-4.3676,-4.3675,-4.3674,0,0,-4.3802,-4.3801,-4.3767,-4.3772,-4.3766,-4.3723,-4.3736,-4.3725,-4.3704,-4.3701,-4.3682,-4.3675,-4.3659,-4.3673,-4.3686,-4.3682,-4.3686,-4.3668,-4.3727,-4.3733,-4.3738,-4.3758,-4.3765,-4.3672,-4.3672,-4.3671,-4.3671,0,-4.3762,-4.3745,-4.3757,-4.3744,-4.3723,-4.3701,-4.3704,-4.3676,-4.3664,-4.367,-4.3635,-4.3636,-4.363,-4.3619,-4.3612,-4.3666,-4.3639,-4.3665,-4.3705,-4.3718,-4.3725,-4.3732,-4.3752,-4.376,-4.3669,-4.3669,-4.3669,0,-4.3707,-4.3686,-4.3688,-4.367,-4.3655,-4.3656,-4.3613,-4.3616,-4.3617,-4.3569,-4.3576,-4.3561,-4.3542,-4.3558,-4.3563,-4.3546,-4.3599,-4.3576,-4.3581,-4.3581,-4.3592,-4.3601,-4.3609,-4.3505,-4.3504,-4.3504,0,0,-4.3678,-4.3677,-4.3643,-4.3658,-4.3652,-4.3619,-4.3615,-4.3592,-4.3575,-4.3569,-4.3547,-4.3533,-4.3529,-4.3527,-4.3522,-4.3543,-4.3537,-4.3557,-4.3564,-4.3571,-4.3575,-4.3587,-4.3596,-4.3502,-4.3502,-4.3502,0,0,-4.3663,-4.3624,-4.3604,-4.3618,-4.3603,-4.357,-4.3582,-4.3556,-4.3548,-4.3543,-4.3504,-4.3498,-4.3512,-4.3498,-4.348,-4.3509,-4.3476,-4.348,-4.3518,-4.3527,-4.3535,-4.3538,-4.3432,0,0,0,0,0,-4.3605,-4.3629,-4.3611,-4.3608,-4.3585,-4.358,-4.3577,-4.3545,-4.3523,-4.3533,-4.3511,-4.3482,-4.348,-4.3463,-4.3462,-4.3482,-4.3481,-4.3485,-4.3488,-4.3542,-4.3552,-4.3561,0,0,0,0,0,0,-4.3604,-4.3601,-4.361,-4.3579,-4.3573,-4.3579,-4.3535,-4.3527,-4.3521,-4.3515,-4.3487,-4.3481,-4.3454,-4.3462,-4.3461,-4.3481,-4.3432,-4.3482,-4.3486,-4.3488,-4.3545,-4.3554,-4.3561,0,0,0,0,0,-4.3603,-4.36,-4.357,-4.3578,-4.3574,-4.3537,-4.3533,-4.3526,-4.3522,-4.3487,-4.348,-4.3498,-4.3456,-4.3453,-4.3461,-4.3482,-4.3433,-4.3433,-4.3484,-4.3487,-4.3489,-4.355,0,0,0,0,0,0,-4.3602,-4.3594,-4.3568,-4.3566,-4.3566,-4.3536,-4.353,-4.3526,-4.3493,-4.3486,-4.3496,-4.3492,-4.3457,-4.3454,-4.3452,-4.3485,-4.3433,-4.3433,-4.3433,-4.3486,-4.3488,-4.349,0,0,0,0,0,0,-4.3595,-4.3592,-4.3567,-4.3554,-4.3549,-4.3535,-4.353,-4.3532,-4.3493,-4.3503,-4.3499,-4.3494,-4.346,-4.3456,-4.3454,-4.3459,-4.3434,-4.3433,-4.3433,-4.3433,-4.3488,-4.349,0,0,0,0,0,0,-4.3593,-4.359,-4.3554,-4.3551,-4.3547,-4.3514,-4.3536,-4.3514,-4.3481,-4.3505,-4.3478,-4.3476,-4.3463,-4.346,-4.3455,-4.3461,-4.3459,-4.3434,-4.3433,-4.3433,-4.3433,0,0,0,0,0,0,0,-4.3591,-4.3617,-4.3584,-4.3548,-4.3545,-4.3541,-4.354,-4.354,-4.3481,-4.3479,-4.3478,-4.3476,-4.3435,-4.3435,-4.3435,-4.3463,0,0,-4.3434,-4.3434,0,0,0,0,0,0,0,0,-4.3617,-4.3617,-4.3584,-4.3583,-4.3583,-4.3541,-4.354,-4.354,-4.3481,-4.3479,-4.3478,-4.3477,-4.3435,-4.3435,-4.3435,0,0,0,0,0,0,0,0,0,0,0,0,0,0,0,-4.3584,-4.3583,0,-4.3541,-4.354,-4.354,-4.348,-4.3479,-4.3478,-4.3478,-4.3435,-4.3435,-4.3435,0,0,0,0,0,0,0,0,0,0,0,0,0,0,0,0,0,0,0,0,0,0,0,0,0,0,0,0,0,0,0,0,0,0,0,0,0,0,0,0,0,0,0,0,0,0,0,0,0,0,0,0,0,0,0,0,0,0,0,0,0,0,0,0,0,0,0,0,0]}],[{"header":{"parameterUnit":"kt","parameterCategory":2,"dx":1,"dy":1,"la1":30.253999710083008,"la2":30.299108505249023,"lo1":-89.0895004272461,"lo2":-89.04439544677734,"nx":28,"ny":28,"refTime":"2022-09-18T21:00:00:Z","depth":0,"parameterNumber":2,"parameterNumberName":"V-component_of_WINDS"},"data":[-3.422,-3.4246,-3.4259,-3.4296,-3.4313,-3.4341,-3.4354,-3.4374,-3.4392,-3.4426,-3.4448,-3.4463,-3.4486,-3.4515,-3.4539,-3.4545,-3.4556,-3.4557,-3.4564,-3.4546,-3.4544,-3.4542,-3.4537,-3.4559,-3.4559,-3.4583,-3.4583,-3.4583,-3.421,-3.4228,-3.425,-3.428,-3.43,-3.4307,-3.4331,-3.4347,-3.4371,-3.4393,-3.4414,-3.4445,-3.447,-3.4492,-3.4519,-3.4533,-3.4537,-3.4539,-3.4539,-3.4543,-3.4523,-3.4518,-3.4535,-3.4535,-3.4535,-3.4535,-3.4535,-3.4535,-3.4197,-3.4212,-3.4237,-3.4261,-3.4279,-3.4299,-3.4316,-3.4333,-3.4355,-3.4383,-3.4392,-3.4419,-3.4443,-3.4479,-3.4494,-3.4516,-3.4515,-3.4521,-3.4523,-3.4524,-3.4526,-3.4495,-3.452,-3.452,-3.452,-3.452,-3.452,0,-3.4192,-3.4201,-3.4222,-3.4248,-3.4265,-3.4286,-3.4306,-3.4316,-3.4338,-3.4355,-3.438,-3.4396,-3.4428,-3.4453,-3.4479,-3.4493,-3.4501,-3.4502,-3.4506,-3.4504,-3.4499,-3.4505,-3.4474,-3.4501,-3.4501,-3.4501,-3.4501,-3.4501,-3.4181,-3.4195,-3.4226,-3.424,-3.4253,-3.4274,-3.4288,-3.4306,-3.4321,-3.4348,-3.436,-3.4385,-3.4405,-3.4442,-3.4461,-3.4484,-3.4488,-3.4498,-3.4492,-3.449,-3.4492,-3.4492,-3.4494,-3.4499,-3.4499,-3.45,-3.45,0,-3.4175,-3.4193,-3.4219,-3.4247,-3.4254,-3.4268,-3.4293,-3.4307,-3.4321,-3.4343,-3.435,-3.4372,-3.4395,-3.4412,-3.4441,-3.4449,-3.4476,-3.4478,-3.4469,-3.4471,-3.4484,-3.4483,-3.4515,-3.4521,-3.4497,-3.4497,-3.4497,0,-3.4173,-3.4191,-3.4218,-3.4231,-3.4252,-3.4269,-3.4289,-3.4302,-3.4322,-3.4339,-3.435,-3.4366,-3.4385,-3.4404,-3.4415,-3.444,-3.4444,-3.4453,-3.4456,-3.4453,-3.4452,-3.4461,-3.4461,-3.4459,-3.4459,-3.4459,-3.4459,0,-3.4162,-3.4195,-3.4217,-3.4228,-3.4258,-3.4268,-3.4281,-3.4302,-3.4315,-3.4335,-3.4344,-3.4365,-3.4377,-3.4394,-3.4409,-3.4405,-3.4438,-3.4435,-3.4447,-3.4447,-3.4454,-3.4454,-3.4477,-3.4458,-3.4458,-3.4458,-3.4458,0,-3.4164,-3.4183,-3.4211,-3.4238,-3.4245,-3.4259,-3.4282,-3.4297,-3.4318,-3.4326,-3.4342,-3.4351,-3.4371,-3.4367,-3.4396,-3.4387,-3.4398,-3.4407,-3.4409,-3.4412,-3.4408,-3.4422,-3.444,-3.4444,-3.4416,-3.4415,-3.4415,0,-3.4148,-3.418,-3.4194,-3.422,-3.4237,-3.4249,-3.4265,-3.4282,-3.4294,-3.4311,-3.4324,-3.4342,-3.4343,-3.4351,-3.4363,-3.4377,-3.439,-3.4376,-3.4402,-3.4402,-3.4399,-3.4415,-3.4415,-3.4434,-3.441,-3.4411,-3.4411,0,-3.4137,-3.4172,-3.4175,-3.4189,-3.4213,-3.4227,-3.4244,-3.4265,-3.4276,-3.4292,-3.4308,-3.4332,-3.4335,-3.4347,-3.4355,-3.4367,-3.4382,-3.4367,-3.4368,-3.4371,-3.4408,-3.4409,-3.4412,-3.4385,-3.4386,-3.4386,-3.4408,0,-3.414,-3.4157,-3.4166,-3.4191,-3.4203,-3.4219,-3.4236,-3.4247,-3.4255,-3.4267,-3.4289,-3.4305,-3.4325,-3.4331,-3.4338,-3.4358,-3.4357,-3.4358,-3.4357,-3.4366,-3.4374,-3.4377,-3.4344,-3.4344,-3.4344,-3.4344,0,0,-3.4121,-3.4145,-3.4158,-3.4175,-3.4187,-3.4197,-3.4213,-3.4225,-3.4249,-3.4257,-3.4256,-3.4292,-3.4304,-3.4329,-3.4333,-3.434,-3.4346,-3.4341,-3.4361,-3.4363,-3.4365,-3.4372,-3.4375,-3.4344,-3.4344,-3.4344,-3.4344,0,-3.4126,-3.4138,-3.4152,-3.4166,-3.4186,-3.4198,-3.4201,-3.4222,-3.423,-3.425,-3.4259,-3.4273,-3.4299,-3.4313,-3.4323,-3.4338,-3.4344,-3.4343,-3.4347,-3.4361,-3.4362,-3.4364,-3.4372,-3.4374,-3.4344,-3.4344,-3.4344,0,-3.412,-3.4135,-3.4143,-3.4168,-3.4181,-3.4197,-3.42,-3.4215,-3.4227,-3.4236,-3.4255,-3.4266,-3.4284,-3.4304,-3.4313,-3.4312,-3.4341,-3.4333,-3.4333,-3.4335,-3.4349,-3.4351,-3.4353,-3.4329,-3.4329,-3.4328,0,0,-3.4121,-3.4136,-3.4157,-3.417,-3.4178,-3.4194,-3.4204,-3.4212,-3.4228,-3.4234,-3.4247,-3.4263,-3.4279,-3.4289,-3.4304,-3.4322,-3.4329,-3.4331,-3.4331,-3.4332,-3.4334,-3.4348,-3.435,-3.4328,-3.4328,-3.4328,0,0,-3.4121,-3.4147,-3.4152,-3.4169,-3.4184,-3.4206,-3.4213,-3.4219,-3.4234,-3.4234,-3.4248,-3.4252,-3.427,-3.428,-3.4273,-3.4304,-3.4301,-3.4303,-3.4297,-3.4298,-3.4299,-3.4297,-3.4277,0,0,0,0,0,-3.4134,-3.4144,-3.4148,-3.4153,-3.4183,-3.4204,-3.4207,-3.4219,-3.4218,-3.4225,-3.4237,-3.4241,-3.428,-3.4274,-3.4278,-3.4286,-3.4323,-3.4324,-3.4324,-3.4321,-3.4322,-3.4323,0,0,0,0,0,0,-3.4136,-3.4142,-3.4148,-3.4169,-3.4176,-3.4203,-3.4205,-3.4208,-3.4218,-3.4219,-3.4239,-3.4242,-3.4252,-3.4272,-3.4276,-3.4283,-3.4275,-3.4323,-3.4324,-3.4325,-3.4321,-3.4322,-3.4323,0,0,0,0,0,-3.4138,-3.4143,-3.4188,-3.4169,-3.4175,-3.4193,-3.4204,-3.4207,-3.4215,-3.4233,-3.4237,-3.4223,-3.4251,-3.4256,-3.4274,-3.4281,-3.4273,-3.4274,-3.4324,-3.4324,-3.4325,-3.4322,0,0,0,0,0,0,-3.4139,-3.4146,-3.4189,-3.4192,-3.4166,-3.4192,-3.4197,-3.4206,-3.4229,-3.4233,-3.4218,-3.4219,-3.4252,-3.4255,-3.4258,-3.428,-3.427,-3.4272,-3.4273,-3.4324,-3.4325,-3.4325,0,0,0,0,0,0,-3.4143,-3.4148,-3.4191,-3.4186,-3.4188,-3.4191,-3.4195,-3.4211,-3.4229,-3.4213,-3.4214,-3.4218,-3.4246,-3.4254,-3.4257,-3.4282,-3.4269,-3.427,-3.4271,-3.4272,-3.4324,-3.4325,0,0,0,0,0,0,-3.4145,-3.4149,-3.4185,-3.4187,-3.4188,-3.4215,-3.4206,-3.4235,-3.4226,-3.4212,-3.4225,-3.4225,-3.4246,-3.4249,-3.4256,-3.428,-3.4282,-3.4269,-3.427,-3.427,-3.4271,0,0,0,0,0,0,0,-3.4147,-3.4118,-3.4176,-3.4187,-3.4189,-3.4213,-3.4213,-3.4214,-3.4226,-3.4226,-3.4225,-3.4225,-3.426,-3.4262,-3.4264,-3.4278,0,0,-3.4269,-3.4269,0,0,0,0,0,0,0,0,-3.4117,-3.4118,-3.4176,-3.4177,-3.4177,-3.4213,-3.4213,-3.4214,-3.4226,-3.4226,-3.4225,-3.4225,-3.4261,-3.4262,-3.4263,0,0,0,0,0,0,0,0,0,0,0,0,0,0,0,-3.4176,-3.4177,0,-3.4213,-3.4213,-3.4214,-3.4226,-3.4226,-3.4225,-3.4225,-3.4261,-3.4262,-3.4263,0,0,0,0,0,0,0,0,0,0,0,0,0,0,0,0,0,0,0,0,0,0,0,0,0,0,0,0,0,0,0,0,0,0,0,0,0,0,0,0,0,0,0,0,0,0,0,0,0,0,0,0,0,0,0,0,0,0,0,0,0,0,0,0,0,0,0,0,0]}]]]